Terminal Aerodrome Forecast
Issued by NWS Duluth, MN

Home | Current Version | Previous Version | Text Only | Print | Product List | Glossary On
Versions: 1 2 3 4 5 6 7 8 9 10 11 12 13 14 15 16 17 18 19 20 21
612
FTUS43 KDLH 300302 AAA
TAFDLH
TAF AMD
KDLH 300302Z 3003/3024 06007KT P6SM SKC
     FM301400 07012G22KT P6SM FEW030
     FM301800 08015G28KT P6SM FEW040=

USA.gov is the U.S. government's official web portal to all federal, state and local government web resources and services.